Regional Weather Roundup
Issued by NWS Albany, NY

Home | Current Version | Previous Version | Text Only | Print | Product List | Glossary On
Versions: 1 2 3 4 5 6 7 8 9 10 11 12 13 14 15 16 17 18 19 20 21 22 23 24 25 26 27
000
ASUS41 KALY 171310
RWRALY

NEW YORK STATE HOURLY WEATHER ROUNDUP
NATIONAL WEATHER SERVICE ALBANY NY
800 AM EST TUE JAN 17 2017

NOTE: "FAIR" INDICATES FEW OR NO CLOUDS BELOW 12,000 FEET WITH NO
SIGNIFICANT WEATHER AND/OR NO OBSTRUCTIONS TO VISIBILITY.

NYZ032-033-038>043-046>054-057>066-NYZ062>081-082-084-171400-
EAST


CITY           SKY/WX    TMP DP  RH WIND       PRES   REMARKS
ALBANY         CLOUDY    20  17  88 CALM      30.24S
GLENS FALLS    CLOUDY    18  13  80 CALM      30.25R
POUGHKEEPSIE   CLOUDY    31  28  89 CALM      30.22S
NEWBURGH       MOCLDY    34  30  86 CALM      30.22R
MONTGOMERY     CLOUDY    34  28  79 CALM      30.19S
WHITE PLAINS   CLOUDY    36  27  69 CALM      30.20S
ISLIP          CLOUDY    34  29  82 CALM      30.22S
NEW YORK CITY  CLOUDY    42  30  62 SW5       30.22S
CENTRAL PARK   CLOUDY    41  28  60 CALM      30.24R
$$

NYZ005>009-017-018-044>046-055-056-171400-
CENTRAL


CITY           SKY/WX    TMP DP  RH WIND       PRES   REMARKS
FULTON         CLOUDY    29  22  75 VRB3      30.14F
SYRACUSE       CLOUDY    27  23  85 E5        30.14F WCI  22
ROME           CLOUDY    23  17  78 SE6       30.19F WCI  16
ELMIRA         LGT RAIN  36  28  73 N3        30.11F
BINGHAMTON     CLOUDY    30  26  85 E7        30.09F WCI  23
MONTICELLO     CLOUDY    30  27  86 CALM      30.17S
$$

NYZ026>034-041>043-087-171400-
NORTH


CITY           SKY/WX    TMP DP  RH WIND       PRES   REMARKS
WATERTOWN      CLOUDY    23  21  92 E7        30.16F FOG     WCI  15
FORT DRUM      NOT AVBL
OGDENSBURG     FAIR      20  19  96 CALM      30.21S FOG
MASSENA        CLOUDY    18  15  88 CALM      30.25S
SARANAC LAKE   CLOUDY     7   3  84 CALM      30.15R
PLATTSBURGH    MOCLDY    21  17  84 CALM      30.25R
$$

NYZ001>004-010>016-019>021-085-171400-
WEST


CITY           SKY/WX    TMP DP  RH WIND       PRES   REMARKS
NIAGARA FALLS  LGT RAIN  36  29  75 E15       29.99F WCI  27
BUFFALO        LGT RAIN  36  31  82 E10       29.99F WCI  28
DUNKIRK        LGT RAIN  37  36  96 W3        29.96F FOG
JAMESTOWN      CLOUDY    37  36  93 S7        29.96F VSB 3/4 WCI  32
WELLSVILLE     LGT RAIN  36  34  92 SE10      30.02F FOG     WCI  28
ROCHESTER      CLOUDY    36  25  64 E9        30.08F WCI  29
PENN YAN       CLOUDY    35  29  78 CALM      30.09F
$$

             KEY
       WCI = WIND CHILL INDEX
       VSB = VISIBILITY
       HX  = HEAT INDEX
$$




USA.gov is the U.S. government's official web portal to all federal, state and local government web resources and services.